Powrót do katalogu

STARLINK-36871

AktywnyŁącznośćSSO
NORAD 68023·PAYLOAD·🇺🇸 United States

Wystrzelony Mar 1, 2026 z Vandenberg Space Force Base

Loading…

Następne Przeloty (najbliższe 24 godziny)

TLE

ŚwieżeSource: CelesTrak SupGP

Epoka: Sep 14, 2026, 21:38 UTC

1 68023C 26040J   26257.90187500 -.00051248  00000+0 -15909-2 0  2577
2 68023  97.2854 205.2851 0001830  91.4828  52.5563 15.33462788    17

Śledź STARLINK-36871 w czasie rzeczywistym z AllMySat

Download on the App Store